Find Yaogan Weixing 21

NORAD ID: 40143 Int'l Des: 2014-053 Owner: ZZB Country: CN Constellation: yaogan operational
LEOCIRCULARRETROGRADESSO

リアルタイム位置

3D地球を読み込み中...

Yaogan Weixing 21について

説明を読み込み中...

次回通過

Passes for default location (London). Set your location on the main map for personalized predictions.

高度履歴

Loading altitude history...

軌道要素

1 40143U 14053A 26106.25789568 .00002270 00000-0 92292-4 0 9999
2 40143 97.1544 149.1727 0006882 320.9658 39.1084 15.25501476645514
Epoch: Apr 16, 2026 • Age: 12 hours

現在のステータス

高度 506.0 km
速度 7.61 km/s
衛星直下点 -41.72°S, 154.33°W
打ち上げ日 Sep 8, 2014
運用期間 11.6 years
タイプ military

技術仕様

分類 Payload
質量 3000.00 kg
乾燥質量 3000.00 kg
総質量 3000.00 kg
長さ 2.00 m
直径 2.00 m
スパン 8.00 m
形状 Box + 2 Pan
製造者 CAST
バスタイプ JB-10
フェーズステータス In Orbit
所有者/国 ZZB/CN

Most Searched